UK-DMC 2

Last updated on Sun Dec 07 2025 00:02:37 GMT+0000 (Coordinated Universal Time)

1 35683U 09041C 25340.54071912 .00002122 00000+0 31821-3 0 9996 2 35683 97.8563 115.6190 0001364 102.9226 257.2136 14.75601126878152
UTC large
Height (km)
Speed (km/s)
/
Latitude / Longitude
Inclination (degrees)
Orbital Period (minutes)
Azimuth
Elevation
Range (km)
Doppler Factor

Next 0 passes for location: London (51.5072 / 0.1276)

Sorry there are no passes over London.